LNR032 TNCM-TNCS

Flight info

Callsign LNR032
Flight time 0h 12m
Altitude 4000
Route PJM
Aircraft C208/L-SBDFGRY/S

Departure

Time 2026-04-26 12:41
Airport Princess Juliana International Airport (TNCM)

Arrival

Time 2026-04-26 12:54
Airport Juancho E. Yrausquin Airport (TNCS)
Time Latitude Longitude Altitude Speed Heading
2026-04-26 12:29 18.04206 -63.11038 20 ft 0 kts 352°
2026-04-26 12:35 18.04207 -63.11038 20 ft 1 kts 352°
2026-04-26 12:35 18.04214 -63.11029 20 ft 4 kts 149°
2026-04-26 12:36 18.04203 -63.11028 20 ft 2 kts 181°
2026-04-26 12:36 18.04170 -63.11048 20 ft 10 kts 243°
2026-04-26 12:36 18.04198 -63.11113 20 ft 15 kts 352°
2026-04-26 12:36 18.04231 -63.11160 19 ft 12 kts 260°
2026-04-26 12:37 18.04212 -63.11254 20 ft 0 kts 255°
2026-04-26 12:37 18.04212 -63.11274 20 ft 8 kts 268°
2026-04-26 12:37 18.04238 -63.11349 19 ft 14 kts 283°
2026-04-26 12:38 18.04220 -63.11463 19 ft 14 kts 253°
2026-04-26 12:38 18.04190 -63.11528 19 ft 11 kts 229°
2026-04-26 12:38 18.04131 -63.11595 19 ft 12 kts 225°
2026-04-26 12:38 18.04073 -63.11671 20 ft 11 kts 239°
2026-04-26 12:39 18.04057 -63.11739 19 ft 10 kts 262°
2026-04-26 12:39 18.04040 -63.11838 19 ft 18 kts 257°
2026-04-26 12:39 18.04033 -63.11881 19 ft 0 kts 264°
2026-04-26 12:40 18.04018 -63.11918 20 ft 10 kts 236°
2026-04-26 12:40 18.03960 -63.11880 21 ft 16 kts 100°
2026-04-26 12:40 18.03986 -63.11678 20 ft 48 kts 80°
2026-04-26 12:41 18.04055 -63.11182 68 ft 78 kts 82°
2026-04-26 12:41 18.04144 -63.10581 239 ft 86 kts 86°
2026-04-26 12:41 18.04175 -63.09927 487 ft 90 kts 104°
2026-04-26 12:41 18.03749 -63.09481 772 ft 98 kts 163°
2026-04-26 12:42 18.03070 -63.09708 997 ft 110 kts 216°
2026-04-26 12:42 18.02524 -63.10222 1323 ft 107 kts 212°
2026-04-26 12:42 18.01836 -63.10602 1561 ft 114 kts 196°
2026-04-26 12:42 18.01096 -63.10818 1833 ft 117 kts 187°
2026-04-26 12:43 18.00315 -63.11130 2098 ft 124 kts 200°
2026-04-26 12:43 17.99507 -63.11481 2328 ft 128 kts 198°
2026-04-26 12:43 17.98669 -63.11850 2547 ft 132 kts 197°
2026-04-26 12:43 17.97803 -63.12222 2759 ft 137 kts 198°
2026-04-26 12:44 17.96907 -63.12581 2959 ft 139 kts 197°
2026-04-26 12:44 17.96003 -63.12952 3167 ft 140 kts 198°
2026-04-26 12:44 17.95083 -63.13311 3373 ft 142 kts 198°
2026-04-26 12:44 17.94144 -63.13670 3572 ft 145 kts 198°
2026-04-26 12:45 17.93202 -63.14034 3761 ft 142 kts 198°
2026-04-26 12:45 17.92285 -63.14375 3945 ft 137 kts 197°
2026-04-26 12:45 17.91399 -63.14711 4128 ft 134 kts 198°
2026-04-26 12:45 17.90532 -63.15039 4315 ft 132 kts 198°
2026-04-26 12:46 17.89670 -63.15357 4485 ft 133 kts 194°
2026-04-26 12:46 17.88720 -63.15573 4499 ft 145 kts 190°
2026-04-26 12:46 17.87699 -63.15784 4504 ft 154 kts 190°
2026-04-26 12:46 17.86621 -63.16003 4502 ft 161 kts 190°
2026-04-26 12:47 17.85506 -63.16232 4502 ft 165 kts 190°
2026-04-26 12:47 17.84366 -63.16463 4458 ft 171 kts 190°
2026-04-26 12:47 17.83176 -63.16699 4295 ft 175 kts 190°
2026-04-26 12:47 17.81990 -63.16936 4123 ft 172 kts 190°
2026-04-26 12:48 17.80823 -63.17173 3953 ft 171 kts 189°
2026-04-26 12:48 17.79662 -63.17410 3782 ft 173 kts 189°
2026-04-26 12:48 17.78462 -63.17658 3613 ft 174 kts 189°
2026-04-26 12:48 17.77296 -63.17903 3446 ft 174 kts 189°
2026-04-26 12:49 17.76110 -63.18160 3281 ft 174 kts 190°
2026-04-26 12:49 17.74909 -63.18421 3112 ft 179 kts 189°
2026-04-26 12:49 17.73688 -63.18688 2949 ft 179 kts 190°
2026-04-26 12:49 17.72478 -63.18990 2774 ft 178 kts 196°
2026-04-26 12:50 17.71322 -63.19458 2600 ft 176 kts 200°
2026-04-26 12:50 17.70278 -63.19892 2398 ft 149 kts 198°
2026-04-26 12:50 17.69354 -63.20291 2195 ft 140 kts 200°
2026-04-26 12:50 17.68462 -63.20667 2000 ft 136 kts 199°
2026-04-26 12:51 17.67600 -63.21035 1784 ft 131 kts 199°
2026-04-26 12:51 17.66800 -63.21392 1681 ft 116 kts 199°
2026-04-26 12:51 17.66104 -63.21710 1663 ft 101 kts 198°
2026-04-26 12:51 17.65507 -63.21991 1670 ft 90 kts 199°
2026-04-26 12:52 17.64944 -63.22242 1593 ft 88 kts 180°
2026-04-26 12:52 17.64469 -63.21931 1574 ft 80 kts 108°
2026-04-26 12:52 17.64571 -63.21366 1362 ft 92 kts 57°
2026-04-26 12:52 17.65170 -63.21160 1113 ft 96 kts 346°
2026-04-26 12:53 17.65583 -63.21652 902 ft 94 kts 279°
2026-04-26 12:53 17.65614 -63.22336 879 ft 95 kts 264°
2026-04-26 12:53 17.65561 -63.22995 791 ft 89 kts 253°
2026-04-26 12:53 17.65069 -63.23207 534 ft 87 kts 150°
2026-04-26 12:54 17.64773 -63.22715 340 ft 76 kts 107°
2026-04-26 12:54 17.64602 -63.22215 153 ft 70 kts 106°
2026-04-26 12:54 17.64481 -63.21920 123 ft 10 kts 119°
2026-04-26 12:54 17.64483 -63.21906 123 ft 6 kts 294°
2026-04-26 12:55 17.64501 -63.21960 128 ft 9 kts 290°
2026-04-26 12:55 17.64519 -63.22012 131 ft 3 kts 280°
2026-04-26 12:55 17.64488 -63.22035 131 ft 6 kts 200°
2026-04-26 12:55 17.64462 -63.22029 129 ft 3 kts 252°
2026-04-26 12:56 17.64458 -63.22048 131 ft 1 kts 339°
2026-04-26 12:56 17.64463 -63.22047 131 ft 0 kts 22°